Regional Weather Roundup
Issued by NWS

Home | Current Version | Previous Version | Text Only | Print | Product List | Glossary Off
Versions: 1 2 3 4 5 6 7 8 9 10 11 12 13 14 15 16 17 18 19 20 21 22 23 24 25 26 27 28 29 30 31 32 33 34 35 36 37 38 39 40 41 42 43 44 45 46 47 48 49 50

000
ASUS45 KTFX 300219
RWRMT
MONTANA HOURLY WEATHER ROUNDUP
NATIONAL WEATHER SERVICE GREAT FALLS MT
819 PM MDT FRI AUG 29 2014

NOTE: "FAIR" INDICATES FEW OR NO CLOUDS BELOW 12000 FEET WITH NO
SIGNIFICANT WEATHER AND/OR OBSTRUCTIONS TO VISIBILITY.

* THESE STATIONS ARE NOT UNDER NWS QUALITY CONTROL. THEY DO NOT
   REPORT WEATHER SUCH AS PRECIPITATION OR FOG.

MTZ001>007-043-300300-
WEST OF THE DIVIDE
CITY           SKY/WX    TMP DP  RH WIND       PRES   REMARKS
KALISPELL      CLOUDY    73  45  37 W6        29.77S
MISSOULA       PTCLDY    79  36  21 NW8       29.81F
BUTTE          FAIR      73  37  27 NW5       29.94F
MULLAN PASS    MOCLDY    59  30  33 VRB6      30.00S
* LINCOLN      N/A       76  35  23 S4G10      N/A
* LOOKOUT PASS N/A       67  35  31 SW1G7      N/A
* POLSON       N/A       74  38  27 SW2G9      N/A
* RONAN APT    MOCLDY    79  39  24 SW5        N/A
* SEELEY LAKE  N/A       78  31  18 NW8G15     N/A
* THOMP F APT  MOCLDY    68  34  28 SW17G35    N/A
$$

MTZ008-052>055-300300-
SOUTHWEST MONTANA
CITY           SKY/WX    TMP DP  RH WIND       PRES   REMARKS
BOZEMAN        PTCLDY    72  46  40 E5        29.88F
DILLON         MOCLDY    73  39  29 S17G26    29.91S
W YELLOWSTONE  LGT RAIN  59  41  51 W13G24    30.14R
* THREE FORKS  PTCLDY    79  57  47 N/A        N/A
* BOULDER HILL N/A       65  36  34 NE2        N/A
* MONIDA PASS  N/A       65  40  40 SE4        N/A
* RAYNOLDS PAS N/A       68  54  61 SW20G26    N/A
* WHITEHALL    N/A       84  41  22 NW3G12     N/A
* WISE RIVER   N/A       75  34  22 W7G21      N/A
$$

MTZ009>010-012-014-046-048-049-054-300300-
EAST SLOPES AND CENTRAL MONTANA
CITY           SKY/WX    TMP DP  RH WIND       PRES   REMARKS
CUT BANK       CLEAR     70  45  41 SW3       29.81F
GREAT FALLS    CLEAR     75  43  32 S3        29.81F
HELENA         CLEAR     79  45  30 CALM      29.83F
MALMSTROM AFB  CLEAR     75  41  30 S3        29.81F
* CONRAD       CLEAR     77  43  30 N/A        N/A
* EAST GLACIER N/A       67  41  39 W8G16      N/A
* MONARCH      N/A       70  26  19 S5         N/A
* PENDROY      N/A       72  37  28 VRB6       N/A
* ROGERS PASS  N/A       67  34  29 SE4        N/A
* SAINT MARY   N/A       67  45  45 S3G8       N/A
* SWEET GRASS  N/A       71  44  38 SW9        N/A
* WHITE SULPH  N/A       72  38  29 NE2        N/A
$$

MTZ011-013-016-021-035-040-045-047-050-051-300300-
NORTH CENTRAL MONTANA
CITY           SKY/WX    TMP DP  RH WIND       PRES   REMARKS
HAVRE          CLEAR     72  50  46 SE8       29.80F
LEWISTOWN      PTCLDY    70  52  53 SE9       29.89F
* CHINOOK      CLEAR     70  54  57 E8        29.83S
* FORT BENTON  CLEAR     73  52  48 E12G18    29.79F
* CHESTER      N/A       74  41  31 SE4G9      N/A
* DENTON       N/A       75  44  33 E9         N/A
* JUDITH GAP   N/A       68  46  45 SE20       N/A
* LOMA         N/A       74  54  50 E15G20     N/A
$$

MTZ017>020-022>027-061-062-300300-
NORTHEAST MONTANA
CITY           SKY/WX    TMP DP  RH WIND       PRES   REMARKS
GLASGOW        CLEAR     64  54  70 SE7       29.90F
GLENDIVE       CLEAR     63  52  68 E6        29.97S
JORDAN         CLEAR     68  54  61 E6        29.91F
SIDNEY         CLEAR     61  54  78 CALM      29.97R
WOLF POINT     CLEAR     68  48  49 SE3       29.92F
* BEAVER HILL  N/A       62  51  67 E6         N/A
* CIRCLE       N/A       67  54  63 N/A        N/A
* LINDSAY DVD  N/A       61  50  67 E6         N/A
* NAVAJO       N/A       62  48  60 SE6        N/A
$$

MTZ028>042-056>058-300300-
SOUTHCENTRAL AND SOUTHEAST MONTANA
CITY           SKY/WX    TMP DP  RH WIND       PRES   REMARKS
BAKER          CLEAR     61  52  72 E5        29.99F
BILLINGS       FAIR      72  54  53 E9        29.92F
LIVINGSTON     PTCLDY    75  45  34 E10       29.90S
MILES CITY     CLEAR     66  52  61 E5        29.94F
* LAUREL APT   CLEAR     70  54  57 NE5        N/A
* ROUNDUP APT  CLEAR     70  50  49 N/A        N/A
* ALZADA       N/A       64  50  61 N4         N/A
* HYSHAM       N/A       67  44  44 E7         N/A
* LAME DEER    N/A       65  50  58 E3         N/A
* REED POINT   N/A       73  51  46 E4         N/A
* ROSCOE HILL  N/A       68  42  39 SE4        N/A
$$

REGIONAL REPORTS...DAKOTAS
CITY           SKY/WX    TMP DP  RH WIND       PRES   REMARKS
WILLISTON      MOCLDY    64  48  56 SE3       29.95F
DICKINSON      CLEAR     61  52  72 NE5       29.97S
BEACH          N/A       55  55 100 E6        29.99S
CROSBY         CLEAR     55  50  83 E7        29.96S
TIOGA          CLEAR     54  50  86 E8        30.00S
WATFORD CITY   CLEAR     57  50  78 E6        29.95S
BISMARCK       CLEAR     64  54  70 NE8       29.96R
GRAND FORKS    CLOUDY    63  57  81 N16       29.88R
FARGO          CLOUDY    64  57  78 N23       29.83R
BUFFALO SD     CLEAR     63  52  68 NE7       29.93S
RAPID CITY     CLEAR     63  54  73 NE6       30.00R
$$

REGIONAL REPORTS...WYOMING/IDAHO/WASHINGTON
CITY           SKY/WX    TMP DP  RH WIND       PRES   REMARKS
GILLETTE       CLEAR     64  50  61 E6        30.01S
SHERIDAN       CLEAR     70  52  53 CALM      29.96F
CODY           PTCLDY    70  46  42 CALM      29.99R
YELLOWSTONE LA PTCLDY    54  45  72 CALM      30.21S
SALMON         PTCLDY    72  55  55 S3        29.81S
MULLAN PASS    MOCLDY    59  30  33 VRB6      30.00S
SAND POINT     CLOUDY    73  41  32 SW7       29.78S
SPOKANE        CLOUDY    75  45  34 SW16      29.82F
$$

REGIONAL REPORTS...ALBERTA
CITY           SKY/WX    TMP DP  RH WIND       PRES   REMARKS
CALGARY        MOCLDY    66  48  52 SE12      29.67F
LETHBRIDGE     MOCLDY    68  54  61 S9        29.73F
MEDICINE HAT   FAIR      72  50  46 S7        29.73F
EDMONTON       MOCLDY    63  52  68 SE7       29.67F
WATERTON GATE  N/A       61  48  62 S1         N/A
CARDSTON       N/A       68  50  53 S6         N/A
MILK RIVER     N/A       68  46  45 SW8        N/A
$$

REGIONAL REPORTS...SASKATCHEWAN
CITY           SKY/WX    TMP DP  RH WIND       PRES   REMARKS
SWIFT CURRENT  CLEAR     63  48  58 S9        29.85F
REGINA         PTCLDY    61  46  58 E6        29.93F
VAL MARIE      N/A       63  50  63 S8         N/A
ASSINIBOIA     N/A       61  46  58 E6         N/A
CORONACH       N/A       61  50  67 SE6        N/A

$$




USA.gov is the U.S. government's official web portal to all federal, state and local government web resources and services.